Weather History for PGUM - December, 2012

Change the Weather History Date:

Tuesday, December 4, 2012

  Actual Average Record
Temperature  
Mean Temperature 84 °F -  
Max Temperature 89 °F 85 °F 89 °F (2012)
Min Temperature 78 °F 75 °F 73 °F (2001)
Cooling Degree Days 18    
Growing Degree Days 34 (Base 50)    
Moisture  
Dew Point 75 °F    
Average Humidity 77    
Maximum Humidity 88    
Minimum Humidity 62    
Precipitation  
Precipitation 0.00 in - - ()
Sea Level Pressure  
Sea Level Pressure 29.86 in    
Wind  
Wind Speed 9 mph (ENE)    
Max Wind Speed 15 mph    
Max Gust Speed -    
Visibility 10 miles    
Events      
Averages and records for this station are not official NWS values.
T = Trace of Precipitation, MM = Missing Value Source: NWS Daily Summary

Daily Weather History Graph

Daily Weather History Graph

Search for Another Location

Airport or City:

Trip Planner

Search our weather history database for the weather conditions in past years. The results will help you decide how hot, cold, wet, or windy it might be!

Date:

Astronomy

Dec. 04, 2012 Rise Set
Actual Time 6:29 AM ChST 5:52 PM ChST
Civil Twilight 6:06 AM ChST 6:15 PM ChST
Nautical Twilight 5:40 AM ChST 6:41 PM ChST
Astronomical Twilight 5:14 AM ChST 7:07 PM ChST
Moon 10:30 PM ChST (12/4) 10:29 AM ChST (12/4)
Length of Visible Light 12h 08m
Length of Day
11h 22m
Waning Gibbous, 75% of the Moon is Illuminated
Dec 4
Waning Gibbous
Dec 7
Last Quarter
Dec 13
New
Dec 20
First Quarter
Dec 28
Full

Hourly Weather History & Observations

Time (ChST) Temp. Heat Index Dew Point Humidity Pressure Visibility Wind Dir Wind Speed Gust Speed Precip Events Conditions
12:54 AM 80.1 °F 85.1 °F 75.0 °F 85% 29.88 in 10.0 mi ENE 6.9 mph - N/A   Partly Cloudy
1:54 AM 79.0 °F - 75.0 °F 88% 29.87 in 10.0 mi NE 5.8 mph - N/A   Mostly Cloudy
2:54 AM 79.0 °F - 75.0 °F 88% 29.84 in 10.0 mi NE 6.9 mph - N/A   Clear
3:54 AM 79.0 °F - 75.0 °F 88% 29.84 in 10.0 mi NNE 5.8 mph - N/A   Partly Cloudy
4:54 AM 79.0 °F - 73.9 °F 84% 29.85 in 10.0 mi ENE 9.2 mph - 0.00 in   Mostly Cloudy
5:54 AM 79.0 °F - 75.0 °F 88% 29.85 in 10.0 mi ENE 9.2 mph - N/A   Clear
6:54 AM 78.1 °F - 73.9 °F 87% 29.87 in 10.0 mi NE 9.2 mph - N/A   Overcast
7:54 AM 82.0 °F 89.4 °F 75.9 °F 82% 29.88 in 10.0 mi NE 11.5 mph - N/A   Mostly Cloudy
8:54 AM 84.0 °F 92.6 °F 75.9 °F 76% 29.89 in 10.0 mi NE 12.7 mph - N/A   Scattered Clouds
9:54 AM 84.9 °F 93.3 °F 75.0 °F 72% 29.88 in 10.0 mi NE 12.7 mph - N/A   Mostly Cloudy
10:34 AM 87.8 °F 97.6 °F 75.2 °F 66% 29.90 in 10.0 mi NE 12.7 mph - N/A   Overcast
10:54 AM 87.1 °F 96.3 °F 75.0 °F 67% 29.87 in 10.0 mi East 12.7 mph - N/A   Mostly Cloudy
11:15 AM 87.8 °F 95.6 °F 73.4 °F 62% 29.89 in 10.0 mi ENE 15.0 mph - N/A   Scattered Clouds
11:54 AM 88.0 °F 96.5 °F 73.9 °F 63% 29.85 in 10.0 mi ENE 15.0 mph - N/A   Partly Cloudy
12:54 PM 88.0 °F 96.5 °F 73.9 °F 63% 29.83 in 10.0 mi East 12.7 mph - N/A   Partly Cloudy
1:54 PM 88.0 °F 96.5 °F 73.9 °F 63% 29.81 in 10.0 mi East 11.5 mph - N/A   Scattered Clouds
2:54 PM 87.1 °F 95.4 °F 73.9 °F 65% 29.81 in 10.0 mi East 12.7 mph - N/A   Partly Cloudy
3:54 PM 86.0 °F 95.1 °F 75.0 °F 70% 29.81 in 10.0 mi ENE 8.1 mph - N/A   Partly Cloudy
4:54 PM 84.9 °F 93.3 °F 75.0 °F 72% 29.82 in 10.0 mi ENE 10.4 mph - N/A   Partly Cloudy
5:54 PM 82.9 °F 90.8 °F 75.9 °F 79% 29.83 in 10.0 mi ENE 6.9 mph - N/A   Clear
6:54 PM 82.0 °F 89.4 °F 75.9 °F 82% 29.84 in 10.0 mi ENE 8.1 mph - N/A   Clear
7:54 PM 82.0 °F 89.4 °F 75.9 °F 82% 29.86 in 10.0 mi ENE 8.1 mph - N/A   Clear
8:54 PM 80.1 °F 85.4 °F 75.9 °F 87% 29.87 in 10.0 mi NE 5.8 mph - N/A   Clear
9:54 PM 80.1 °F 85.4 °F 75.9 °F 87% 29.88 in 10.0 mi ENE 10.4 mph - N/A   Partly Cloudy
10:54 PM 80.1 °F 85.4 °F 75.9 °F 87% 29.88 in 10.0 mi NE 6.9 mph - N/A   Clear
11:54 PM 80.1 °F 85.1 °F 75.0 °F 85% 29.88 in 10.0 mi NE 6.9 mph - N/A   Clear